Time,TemperatureF,DewpointF,PressureIn,WindDirection,WindDirectionDegrees,WindSpeedMPH,WindSpeedGustMPH,Humidity,HourlyPrecipIn,Conditions,Clouds,dailyrainin,SoftwareType,DateUTC
2013-02-22 00:00:00,43.7,28.2,30.20,East,90,0.7,0.7,54,0.00,,,0.00,WUHU216HW,2013-02-22 05:00:00,
2013-02-22 00:05:00,43.7,28.2,30.20,East,90,0.7,0.7,54,0.00,,,0.00,WUHU216HW,2013-02-22 05:05:00,
2013-02-22 00:30:00,43.9,27.9,30.21,ENE,68,0.7,0.7,53,0.00,,,0.00,WUHU216HW,2013-02-22 05:30:00,
2013-02-22 00:35:00,43.9,27.9,30.21,ENE,68,0.7,0.7,53,0.00,,,0.00,WUHU216HW,2013-02-22 05:35:00,
2013-02-22 00:59:00,44.3,28.2,30.23,ENE,68,1.1,1.1,53,0.00,,,0.00,WUHU216HW,2013-02-22 05:59:00,
2013-02-22 01:00:00,44.3,28.2,30.23,ENE,68,1.1,1.1,53,0.00,,,0.00,WUHU216HW,2013-02-22 06:00:00,
2013-02-22 01:05:00,44.3,28.2,30.23,ENE,68,1.1,1.1,53,0.00,,,0.00,WUHU216HW,2013-02-22 06:05:00,
2013-02-22 01:30:00,44.3,28.2,30.25,NE,45,2.5,2.5,53,0.00,,,0.00,WUHU216HW,2013-02-22 06:30:00,
2013-02-22 01:35:00,44.3,28.2,30.25,NE,45,2.5,2.5,53,0.00,,,0.00,WUHU216HW,2013-02-22 06:35:00,
2013-02-22 01:59:00,43.7,27.7,30.24,NE,45,4.3,4.3,53,0.00,,,0.00,WUHU216HW,2013-02-22 06:59:00,
2013-02-22 02:00:00,43.7,27.7,30.24,NE,45,4.3,4.3,53,0.00,,,0.00,WUHU216HW,2013-02-22 07:00:00,
2013-02-22 02:05:00,43.7,27.7,30.24,NE,45,4.3,4.3,53,0.00,,,0.00,WUHU216HW,2013-02-22 07:05:00,
2013-02-22 02:30:00,43.2,27.2,30.24,ENE,68,1.8,1.8,53,0.00,,,0.00,WUHU216HW,2013-02-22 07:30:00,
2013-02-22 02:35:00,43.2,27.2,30.24,ENE,68,1.8,1.8,53,0.00,,,0.00,WUHU216HW,2013-02-22 07:35:00,
2013-02-22 02:59:00,42.8,27.3,30.25,ENE,68,0.9,0.9,54,0.00,,,0.00,WUHU216HW,2013-02-22 07:59:00,
2013-02-22 03:00:00,42.8,27.3,30.25,ENE,68,0.9,0.9,54,0.00,,,0.00,WUHU216HW,2013-02-22 08:00:00,
2013-02-22 03:05:00,42.8,27.3,30.25,ENE,68,0.9,0.9,54,0.00,,,0.00,WUHU216HW,2013-02-22 08:05:00,
2013-02-22 03:30:00,42.8,27.3,30.27,NE,45,2.0,2.0,54,0.00,,,0.00,WUHU216HW,2013-02-22 08:30:00,
2013-02-22 03:35:00,42.8,27.3,30.27,NE,45,2.0,2.0,54,0.00,,,0.00,WUHU216HW,2013-02-22 08:35:00,
2013-02-22 03:59:00,42.5,26.9,30.28,ENE,68,3.4,3.4,54,0.00,,,0.00,WUHU216HW,2013-02-22 08:59:00,
2013-02-22 04:00:00,42.5,26.9,30.28,ENE,68,3.4,3.4,54,0.00,,,0.00,WUHU216HW,2013-02-22 09:00:00,
2013-02-22 04:05:00,42.5,26.9,30.28,ENE,68,3.4,3.4,54,0.00,,,0.00,WUHU216HW,2013-02-22 09:05:00,
2013-02-22 04:30:00,42.1,27.0,30.26,NE,45,1.1,1.1,55,0.00,,,0.00,WUHU216HW,2013-02-22 09:30:00,
2013-02-22 04:35:00,42.1,27.0,30.26,NE,45,1.1,1.1,55,0.00,,,0.00,WUHU216HW,2013-02-22 09:35:00,
2013-02-22 04:59:00,41.8,26.7,30.27,ENE,68,2.2,2.2,55,0.00,,,0.00,WUHU216HW,2013-02-22 09:59:00,
2013-02-22 05:00:00,41.8,26.7,30.27,ENE,68,2.2,2.2,55,0.00,,,0.00,WUHU216HW,2013-02-22 10:00:00,
2013-02-22 05:05:00,41.8,26.7,30.27,ENE,68,2.2,2.2,55,0.00,,,0.00,WUHU216HW,2013-02-22 10:05:00,
2013-02-22 05:30:00,41.2,26.7,30.26,ENE,68,2.2,2.2,56,0.00,,,0.00,WUHU216HW,2013-02-22 10:30:00,
2013-02-22 05:35:00,41.2,26.7,30.26,ENE,68,2.2,2.2,56,0.00,,,0.00,WUHU216HW,2013-02-22 10:35:00,
2013-02-22 05:59:00,40.5,27.3,30.21,NE,45,2.5,2.5,59,0.00,,,0.00,WUHU216HW,2013-02-22 10:59:00,
2013-02-22 06:00:00,40.5,27.3,30.21,NE,45,2.5,2.5,59,0.00,,,0.00,WUHU216HW,2013-02-22 11:00:00,
2013-02-22 06:05:00,40.5,27.3,30.21,NE,45,2.5,2.5,59,0.00,,,0.00,WUHU216HW,2013-02-22 11:05:00,
2013-02-22 06:30:00,40.1,26.9,30.25,ESE,113,2.0,2.0,59,0.00,,,0.00,WUHU216HW,2013-02-22 11:30:00,
2013-02-22 06:35:00,40.1,26.9,30.25,ESE,113,2.0,2.0,59,0.00,,,0.00,WUHU216HW,2013-02-22 11:35:00,
2013-02-22 06:59:00,39.8,27.7,30.27,East,90,0.0,0.0,62,0.00,,,0.00,WUHU216HW,2013-02-22 11:59:00,
2013-02-22 07:00:00,39.8,27.7,30.27,East,90,0.0,0.0,62,0.00,,,0.00,WUHU216HW,2013-02-22 12:00:00,
2013-02-22 07:05:00,39.8,27.7,30.27,East,90,0.0,0.0,62,0.00,,,0.00,WUHU216HW,2013-02-22 12:05:00,
2013-02-22 07:30:00,39.6,29.1,30.25,ESE,113,0.0,0.0,66,0.00,,,0.00,WUHU216HW,2013-02-22 12:30:00,
2013-02-22 07:35:00,39.6,29.1,30.25,ESE,113,0.0,0.0,66,0.00,,,0.00,WUHU216HW,2013-02-22 12:35:00,
2013-02-22 07:59:00,39.6,29.4,30.27,ENE,68,0.4,0.4,67,0.00,,,0.00,WUHU216HW,2013-02-22 12:59:00,
2013-02-22 08:00:00,39.6,29.4,30.27,ENE,68,0.4,0.4,67,0.00,,,0.00,WUHU216HW,2013-02-22 13:00:00,
2013-02-22 08:05:00,39.6,29.4,30.27,ENE,68,0.4,0.4,67,0.00,,,0.00,WUHU216HW,2013-02-22 13:05:00,
2013-02-22 09:00:00,40.0,31.3,30.26,ENE,68,0.9,0.9,71,0.00,,,0.00,WUHU216HW,2013-02-22 14:00:00,
2013-02-22 09:05:00,40.0,31.6,30.26,ENE,68,0.7,0.9,72,0.00,,,0.00,WUHU216HW,2013-02-22 14:05:00,
2013-02-22 09:10:00,40.0,31.6,30.26,ENE,68,0.7,0.7,72,0.00,,,0.00,WUHU216HW,2013-02-22 14:10:00,
2013-02-22 09:30:00,40.3,31.7,30.27,ENE,68,4.3,4.3,71,0.00,,,0.00,WUHU216HW,2013-02-22 14:30:00,
2013-02-22 09:35:00,40.3,31.7,30.27,ENE,68,4.3,4.3,71,0.00,,,0.00,WUHU216HW,2013-02-22 14:35:00,
2013-02-22 10:00:00,41.4,32.8,30.27,East,90,1.1,1.1,71,0.00,,,0.00,WUHU216HW,2013-02-22 15:00:00,
2013-02-22 10:05:00,41.4,32.8,30.27,East,90,1.1,1.1,71,0.00,,,0.00,WUHU216HW,2013-02-22 15:05:00,
2013-02-22 10:30:00,42.1,33.5,30.25,ENE,68,0.4,0.4,71,0.00,,,0.00,WUHU216HW,2013-02-22 15:30:00,
2013-02-22 10:35:00,42.1,33.5,30.25,ENE,68,0.4,0.4,71,0.00,,,0.00,WUHU216HW,2013-02-22 15:35:00,
2013-02-22 11:00:00,41.4,32.1,30.27,ENE,68,1.8,1.8,69,0.00,,,0.00,WUHU216HW,2013-02-22 16:00:00,
2013-02-22 11:05:00,41.4,32.1,30.27,ENE,68,1.8,1.8,69,0.00,,,0.00,WUHU216HW,2013-02-22 16:05:00,
2013-02-22 11:30:00,41.9,32.9,30.26,East,90,1.6,1.6,70,0.00,,,0.00,WUHU216HW,2013-02-22 16:30:00,
2013-02-22 11:35:00,41.9,32.9,30.26,East,90,1.6,1.6,70,0.00,,,0.00,WUHU216HW,2013-02-22 16:35:00,
2013-02-22 12:00:00,42.8,33.5,30.25,ENE,68,2.9,2.9,69,0.00,,,0.00,WUHU216HW,2013-02-22 17:00:00,
2013-02-22 12:05:00,42.8,33.5,30.25,ENE,68,2.9,2.9,69,0.00,,,0.00,WUHU216HW,2013-02-22 17:05:00,
2013-02-22 13:30:00,43.0,33.2,30.19,ENE,68,3.4,3.4,68,0.00,,,0.00,WUHU216HW,2013-02-22 18:30:00,
2013-02-22 13:35:00,43.0,33.2,30.19,ENE,68,3.4,3.4,68,0.00,,,0.00,WUHU216HW,2013-02-22 18:35:00,
2013-02-22 14:00:00,43.4,33.6,30.18,NE,45,0.9,0.9,68,0.00,,,0.00,WUHU216HW,2013-02-22 19:00:00,
2013-02-22 14:05:00,43.4,33.6,30.18,NE,45,0.9,0.9,68,0.00,,,0.00,WUHU216HW,2013-02-22 19:05:00,
2013-02-22 14:30:00,42.8,34.2,30.17,ENE,68,3.8,3.8,71,0.00,,,0.00,WUHU216HW,2013-02-22 19:30:00,
2013-02-22 14:35:00,42.8,34.2,30.17,ENE,68,3.8,3.8,71,0.00,,,0.00,WUHU216HW,2013-02-22 19:35:00,
2013-02-22 15:00:00,42.8,34.2,30.16,NE,45,1.8,1.8,71,0.00,,,0.00,WUHU216HW,2013-02-22 20:00:00,
2013-02-22 15:05:00,42.8,34.2,30.16,NE,45,1.8,1.8,71,0.00,,,0.00,WUHU216HW,2013-02-22 20:05:00,
2013-02-22 15:30:00,43.6,34.8,30.16,ENE,68,1.1,1.1,71,0.00,,,0.00,WUHU216HW,2013-02-22 20:30:00,
2013-02-22 15:35:00,43.6,34.8,30.16,ENE,68,1.1,1.1,71,0.00,,,0.00,WUHU216HW,2013-02-22 20:35:00,
2013-02-22 16:00:00,43.6,34.8,30.16,NE,45,2.2,2.2,71,0.00,,,0.00,WUHU216HW,2013-02-22 21:00:00,
2013-02-22 16:05:00,43.6,34.8,30.16,NE,45,2.2,2.2,71,0.00,,,0.00,WUHU216HW,2013-02-22 21:05:00,
2013-02-22 16:30:00,43.2,34.8,30.16,NE,45,1.8,1.8,72,0.00,,,0.00,WUHU216HW,2013-02-22 21:30:00,
2013-02-22 16:35:00,43.2,34.8,30.16,NE,45,1.8,1.8,72,0.00,,,0.00,WUHU216HW,2013-02-22 21:35:00,
2013-02-22 17:00:00,41.9,35.6,30.16,North,0,0.4,0.4,78,0.00,,,0.00,WUHU216HW,2013-02-22 22:00:00,
2013-02-22 17:05:00,41.9,35.6,30.16,North,0,0.4,0.4,78,0.00,,,0.00,WUHU216HW,2013-02-22 22:05:00,
2013-02-22 17:30:00,40.7,35.6,30.15,NE,45,2.5,2.5,82,0.00,,,0.00,WUHU216HW,2013-02-22 22:30:00,
2013-02-22 17:35:00,40.7,35.6,30.15,NE,45,2.5,2.5,82,0.00,,,0.00,WUHU216HW,2013-02-22 22:35:00,
2013-02-22 18:00:00,40.0,35.5,30.14,NE,45,4.7,4.7,84,0.00,,,0.00,WUHU216HW,2013-02-22 23:00:00,
2013-02-22 18:05:00,40.0,35.5,30.14,NE,45,4.7,4.7,84,0.00,,,0.00,WUHU216HW,2013-02-22 23:05:00,
2013-02-22 18:30:00,39.6,35.7,30.15,NNE,23,1.6,1.6,86,0.00,,,0.00,WUHU216HW,2013-02-22 23:30:00,
2013-02-22 18:35:00,39.6,35.7,30.15,NNE,23,1.6,1.6,86,0.00,,,0.00,WUHU216HW,2013-02-22 23:35:00,
2013-02-22 19:00:00,39.2,35.6,30.15,NE,45,3.6,3.6,87,0.00,,,0.00,WUHU216HW,2013-02-23 00:00:00,
2013-02-22 19:05:00,39.2,35.6,30.15,NE,45,3.6,3.6,87,0.00,,,0.00,WUHU216HW,2013-02-23 00:05:00,
2013-02-22 19:30:00,39.2,35.6,30.14,North,0,2.5,2.5,87,0.00,,,0.00,WUHU216HW,2013-02-23 00:30:00,
2013-02-22 19:35:00,39.2,35.6,30.14,North,0,2.5,2.5,87,0.00,,,0.00,WUHU216HW,2013-02-23 00:35:00,
2013-02-22 20:00:00,39.2,36.0,30.14,NE,45,3.4,3.4,88,0.00,,,0.00,WUHU216HW,2013-02-23 01:00:00,
2013-02-22 20:05:00,39.2,36.0,30.14,NE,45,3.4,3.4,88,0.00,,,0.00,WUHU216HW,2013-02-23 01:05:00,
2013-02-22 20:30:00,39.2,35.6,30.14,NE,45,2.7,2.7,87,0.00,,,0.00,WUHU216HW,2013-02-23 01:30:00,
2013-02-22 20:35:00,39.2,35.6,30.14,NE,45,2.7,2.7,87,0.00,,,0.00,WUHU216HW,2013-02-23 01:35:00,
2013-02-22 21:00:00,39.4,35.8,30.11,NE,45,1.3,1.3,87,0.00,,,0.00,WUHU216HW,2013-02-23 02:00:00,
2013-02-22 21:01:00,39.4,35.8,30.11,NE,45,1.3,1.3,87,0.00,,,0.00,WUHU216HW,2013-02-23 02:01:00,
2013-02-22 21:06:00,39.4,35.8,30.11,NE,45,1.3,1.3,87,0.00,,,0.00,WUHU216HW,2013-02-23 02:06:00,
2013-02-22 21:30:00,39.4,36.2,30.13,North,0,0.4,0.4,88,0.00,,,0.00,WUHU216HW,2013-02-23 02:30:00,
2013-02-22 21:35:00,39.4,36.2,30.13,North,0,0.4,0.4,88,0.00,,,0.00,WUHU216HW,2013-02-23 02:35:00,
2013-02-22 21:59:00,39.2,36.3,30.14,North,0,0.4,0.4,89,0.00,,,0.00,WUHU216HW,2013-02-23 02:59:00,
2013-02-22 22:00:00,39.2,36.3,30.14,North,0,0.4,0.4,89,0.00,,,0.00,WUHU216HW,2013-02-23 03:00:00,
2013-02-22 22:05:00,39.2,36.3,30.14,North,0,0.4,0.4,89,0.00,,,0.00,WUHU216HW,2013-02-23 03:05:00,
2013-02-22 22:30:00,39.1,36.4,30.14,NNE,23,1.1,1.1,90,0.00,,,0.00,WUHU216HW,2013-02-23 03:30:00,
2013-02-22 22:35:00,39.1,36.4,30.14,NNE,23,1.1,1.1,90,0.00,,,0.00,WUHU216HW,2013-02-23 03:35:00,
2013-02-22 22:59:00,39.1,36.4,30.12,NW,315,0.4,0.4,90,0.00,,,0.00,WUHU216HW,2013-02-23 03:59:00,
2013-02-22 23:00:00,39.1,36.4,30.12,NW,315,0.4,0.4,90,0.00,,,0.00,WUHU216HW,2013-02-23 04:00:00,
2013-02-22 23:05:00,39.1,36.4,30.12,NW,315,0.4,0.4,90,0.00,,,0.00,WUHU216HW,2013-02-23 04:05:00,
2013-02-22 23:30:00,39.1,36.4,30.10,NE,45,3.4,3.4,90,0.00,,,0.00,WUHU216HW,2013-02-23 04:30:00,
2013-02-22 23:35:00,39.1,36.4,30.10,NE,45,3.4,3.4,90,0.00,,,0.00,WUHU216HW,2013-02-23 04:35:00,
2013-02-22 23:59:00,39.1,36.4,30.08,North,0,2.9,2.9,90,0.00,,,0.00,WUHU216HW,2013-02-23 04:59:00,